Flag for Canada Weather past 2 weeks in Owen Sound, Ontario, Canada

Now
75 °F

Passing clouds.


Feels Like: 78 °F
Forecast: 54 / 78 °F
Wind: 5 mph from Northwest

Location: Wiarton

Current Time: Jul 5, 2015 at 3:03:02 PM

Latest Report: Jul 5, 2015 at 2:00 PM


Visibility: 10 mi

Pressure: 30.12 "Hg

Humidity: 57%

Dew point: 59 °F

Location of Owen SoundLocation

Historic Weather in Owen Sound — Graph

°F

Owen Sound temperature yesterday

Maximum temperature yesterday: 72 °F (at 2:00 PM)
Minimum temperature yesterday: 50 °F (at 6:00 AM)
Average temperature yesterday: 61 °F

Past Weeks' High & Low Weather Summary

 TemperatureHumidityPressure
High75 °F (Jun 22, 3:00 PM)100% (Jun 21, 5:03 AM)30.14 "Hg (Jun 21, 5:03 AM)
Low43 °F (Jul 3, 3:00 AM)35% (Jul 2, 3:00 PM)29.57 "Hg (Jun 23, 4:00 AM)
Average60 °F81%29.93 "Hg
* Reported Jun 20 2:00 PM — Jul 5 2:00 PM, Owen Sound, Weather by CustomWeather, © 2015

Note: Actual official high and low records may vary slightly from our data, if they occured in-between our weather recording intervals... More about our weather records

Advertising

Owen Sound weather history for previous 24 hours

 ConditionsComfort  
Time TempWeatherWind HumidityBarometerVisibility
2:00 PM
Sun, Jul 5
75 °FPassing clouds.5 mph57%30.12 "Hg10 mi
1:00 PM75 °FPassing clouds.3 mph57%30.12 "Hg10 mi
12:00 PM73 °FSunny.3 mph57%30.13 "Hg10 mi
11:00 AM72 °FSunny.2 mph61%30.12 "Hg10 mi
10:00 AM68 °FSunny.3 mph73%30.12 "Hg10 mi
9:00 AM64 °FSunny.2 mph83%30.11 "Hg10 mi
8:00 AM57 °FSunny.3 mph94%30.09 "Hg8 mi
7:00 AM52 °FSunny.5 mph100%30.09 "Hg8 mi
6:00 AM50 °FPassing clouds.5 mph100%30.08 "Hg8 mi
5:00 AM50 °FPassing clouds.5 mph100%30.07 "Hg15 mi
4:00 AM50 °FPassing clouds.5 mph100%30.07 "Hg15 mi
3:00 AM50 °FPassing clouds.5 mph100%30.06 "Hg15 mi
2:00 AM50 °FClear.5 mph100%30.05 "Hg15 mi
1:00 AM52 °FPassing clouds.5 mph100%30.04 "Hg15 mi
12:00 AM54 °FPassing clouds.2 mph94%30.03 "Hg15 mi
11:00 PM
Sat, Jul 4
55 °FPassing clouds.2 mph94%30.02 "Hg15 mi
10:00 PM57 °FPartly sunny.3 mph88%30.01 "Hg15 mi
9:00 PM63 °FPartly sunny.3 mph68%29.99 "Hg15 mi
8:00 PM66 °FScattered clouds.6 mph60%29.98 "Hg15 mi
7:00 PM68 °FSunny.7 mph60%29.98 "Hg15 mi
6:00 PM70 °FSunny.6 mph57%29.98 "Hg15 mi
5:00 PM68 °FSunny.9 mph69%29.98 "Hg15 mi
4:00 PM70 °FSunny.9 mph69%29.97 "Hg15 mi
3:00 PM72 °FPassing clouds.8 mph57%29.97 "Hg15 mi
Weather by CustomWeather, © 2015

See weather overviewHow to use our weather pages